Miscellaneous Local Product
Issued by NWS North Platte, NE

Home | Current Version | Previous Version | Text Only | Print | Product List | Glossary On
Versions: 1 2 3 4 5 6 7 8 9 10 11 12 13 14 15 16 17 18 19 20 21 22 23 24 25 26 27 28 29 30 31 32 33 34 35 36 37 38 39 40 41 42 43 44 45 46 47 48 49 50
201
AXUS43 KLBF 222010
MISLBF


WESTERN AND NORTH CENTRAL NEBRASKA HOURLY WEATHER ROUNDUP
NATIONAL WEATHER SERVICE NORTH PLATTE NE
300 PM CDT TUE AUG 22 2017

NOTE: "FAIR" INDICATES FEW OR NO CLOUDS BELOW 12,000 FEET WITH NO
SIGNIFICANT WEATHER AND/OR OBSTRUCTIONS TO VISIBILITY.

NOTE: STATIONS NOT REPORTING VARIABLES SUCH AS SKY/WEATHER OR
PRESSURE ARE PROVIDED BY RAWS AND APRS NETWORKS AND ARE NOT UNDER
NATIONAL WEATHER SERVICE QUALITY CONTROL.

...OBSERVATIONS IN AND NEAR THE EASTERN PANHANDLE OF NEBRASKA...

CITY           SKY/WX    TMP DP  RH WIND       PRES   REMARKS
PINE RIDGE     SUNNY     84  45  25 S9        30.21F
GORDON         FAIR      81  42  25 S9        30.23F
CHADRON        SUNNY     83  43  24 S15G22    30.19F
ALLIANCE       SUNNY     77  44  30 S16       30.25F
SIDNEY         SUNNY     80  44  27 S10G21    30.29F
CRESCENT LAKE    N/A     78  47  33 S8G15       N/A
$$

...OBSERVATIONS IN NORTHERN NEBRASKA AND FAR SOUTHERN SOUTH DAKOTA...

CITY           SKY/WX    TMP DP  RH WIND       PRES   REMARKS
WINNER         FAIR      79  49  34 W5        30.21F
VALENTINE      SUNNY     79  42  26 VRB3      30.23F
THEDFORD       SUNNY     79  47  32 SE7       30.26S
AINSWORTH      SUNNY     73  47  39 CALM      30.24F
O`NEILL        SUNNY     73  49  41 N5        30.23F
ORD            SUNNY     76  42  29 CALM      30.22F
BROKEN BOW     SUNNY     76  49  38 VRB3      30.24F
VALENTINE NWR    N/A     76  46  33 W3          N/A
HALSEY           N/A     78  45  30 NE5         N/A
BUTTE            N/A     74  48  39 CALM        N/A
CHAMBERS         N/A     76  48  36 CALM        N/A
EWING            N/A     74  55  51 NW3         N/A
$$

...OBSERVATIONS IN SOUTHWEST NEBRASKA AND FAR NORTHEAST COLORADO...

CITY           SKY/WX    TMP DP  RH WIND       PRES   REMARKS
HOLYOKE        FAIR      79  52  38 SE10G16   30.28F
IMPERIAL       SUNNY     79  45  29 SE12      30.26F
OGALLALA       SUNNY     78  46  31 SE9       30.27S
NORTH PLATTE   SUNNY     77  51  40 VRB6      30.25F
MCCOOK         SUNNY     80  51  36 CALM      30.25F
LEXINGTON      SUNNY     75  53  46 SE7       30.25F
STAPLETON        N/A     77  51  40 CALM        N/A
GOTHENBURG       N/A     75  46  35 E3          N/A
CALLAWAY         N/A     79  57  46 E3          N/A
$$

...OBSERVATIONS IN CENTRAL LINCOLN COUNTY AREA...

CITY           SKY/WX    TMP DP  RH WIND       PRES   REMARKS
N.P. AIRPORT   SUNNY     77  51  40 VRB6      30.25F
N.P. DOWNTOWN    N/A     78  53  41 CALM        N/A
N.P. SOUTHEAST   N/A     79  52  38 CALM        N/A
N.P. HILLCREST   N/A     77  51  40 S3          N/A
$$

...SOME OBSERVATIONS FROM AROUND THE REGION...

CITY           SKY/WX    TMP DP  RH WIND       PRES   REMARKS
DENVER         MOSUNNY   83  56  39 NE8G18    30.26F
LIMON          MOSUNNY   75  57  53 S16G24    30.34F
ASPEN          CLOUDY    78  34  20 S9        30.41F
LARAMIE        SUNNY     81  32  17 NW12G23   30.35F
CASPER         SUNNY     84  39  20 VRB6      30.24F
CHEYENNE       SUNNY     73  55  53 S13G20    30.33F
SCOTTSBLUFF    SUNNY     82  48  30 S15       30.23F
GRAND ISLAND   SUNNY     76  48  37 N5        30.23F
OMAHA          MOSUNNY   76  50  40 N10       30.17S
SIOUX FALLS    MOSUNNY   75  50  41 NW18      30.17F
PIERRE         SUNNY     78  45  30 CALM      30.17F
RAPID CITY     SUNNY     82  45  27 S15G21    30.17F
BISMARCK       SUNNY     77  40  26 NW10      30.17F
KANSAS CITY    PTSUNNY   78  65  63 N10       30.12F
HILL CITY      SUNNY     85  46  25 NE14      30.22F
WICHITA        CLOUDY    82  69  64 E17       30.11F
DODGE CITY     SUNNY     85  57  38 NE15G26   30.18F
OKLAHOMA CITY  CLOUDY    89  68  49 CALM      30.05F HX  93
DALLAS         MOSUNNY   97  70  41 S8        30.01F HX 103
AMARILLO       PTSUNNY   78  68  71 N16       30.21F
$$




USA.gov is the U.S. government's official web portal to all federal, state and local government web resources and services.